GW6670 Weather Reports


Display with metric or nautical units.
time (UTC)temp
F
wind
direction
speed
MPH
gust
MPH
rain 1hr
in
rain 24hr
in
rain mn
in
humidity
%
barometer
mb
20260506014018 56 332 11.0 17.0 0.00 0.00 0.00 55 1016.1
20260506013518 56 316 11.0 17.0 0.00 0.00 0.00 54 1016.1
20260506013044 56 313 11.0 17.0 0.00 0.00 0.00 54 1016.0
20260506012518 56 292 9.0 16.0 0.00 0.00 0.00 57 1016.1
20260506012015 56 304 7.0 16.0 0.00 0.00 0.00 57 1016.1
20260506011551 56 360 10.0 16.0 0.00 0.00 0.00 58 1016.1
20260506011020 56 311 11.0 16.0 0.00 0.00 0.00 58 1016.2
20260506010520 56 280 7.0 16.0 0.00 0.00 0.00 59 1016.2
20260506010051 55 296 11.0 17.0 0.00 0.00 0.00 59 1016.3
20260506005518 55 315 14.0 18.0 0.00 0.00 0.00 58 1016.1
20260506005018 55 299 12.0 21.0 0.00 0.00 0.00 59 1016.3
20260506004600 56 315 9.0 18.0 0.00 0.00 0.00 59 1016.1
20260506004015 56 310 13.0 18.0 0.00 0.00 0.00 59 1016.1
20260506003517 57 326 13.0 20.0 0.00 0.00 0.00 58 1015.9
20260506003103 57 308 12.0 20.0 0.00 0.00 0.00 57 1016.1
20260506002519 57 302 14.0 22.0 0.00 0.00 0.00 58 1016.2
20260506002016 57 323 15.0 22.0 0.00 0.00 0.00 57 1016.2
20260506001554 57 301 14.0 19.0 0.00 0.00 0.00 57 1016.2
20260506001017 58 291 11.0 18.0 0.00 0.00 0.00 59 1016.0
20260506000516 57 304 13.0 21.0 0.00 0.00 0.00 61 1016.0
20260506000051 58 318 13.0 21.0 0.00 0.00 0.00 59 1015.8
20260505235517 59 308 14.0 19.0 0.00 0.00 0.00 57 1015.8
20260505235017 59 303 9.0 19.0 0.00 0.00 0.00 57 1015.8
20260505234613 59 300 13.0 16.0 0.00 0.00 0.00 54 1015.8
20260505234025 59 320 6.0 18.0 0.00 0.00 0.00 55 1015.9
20260505233520 59 321 8.0 18.0 0.00 0.00 0.00 59 1015.9
20260505233044 59 300 4.0 15.0 0.00 0.00 0.00 57 1016.0
20260505232517 58 336 8.0 16.0 0.00 0.00 0.00 55 1016.1
20260505232019 58 283 6.0 15.0 0.00 0.00 0.00 56 1016.0
20260505231552 58 331 7.0 13.0 0.00 0.00 0.00 56 1016.0
20260505231019 58 303 11.0 13.0 0.00 0.00 0.00 55 1015.9
20260505230519 58 278 8.0 13.0 0.00 0.00 0.00 56 1016.0
20260505230057 58 294 9.0 12.0 0.00 0.00 0.00 56 1015.7
20260505225521 59 297 4.0 13.0 0.00 0.00 0.00 56 1015.8
20260505225019 59 290 4.0 13.0 0.00 0.00 0.00 56 1015.7
20260505224547 59 80 6.0 15.0 0.00 0.00 0.00 56 1015.8
20260505224018 58 295 7.0 24.0 0.00 0.00 0.00 56 1016.0
20260505223519 58 298 10.0 24.0 0.00 0.00 0.00 57 1015.9
20260505223051 57 302 15.0 23.0 0.00 0.00 0.00 58 1015.9
20260505222524 57 317 14.0 23.0 0.00 0.00 0.00 58 1016.1
20260505222020 57 296 15.0 23.0 0.00 0.00 0.00 58 1015.9
20260505221553 57 297 17.0 23.0 0.00 0.00 0.00 57 1015.9
20260505221022 58 298 14.0 20.0 0.00 0.00 0.00 57 1015.8
20260505220519 58 319 10.0 20.0 0.00 0.00 0.00 55 1015.8
20260505220106 58 294 12.0 18.0 0.00 0.00 0.00 56 1015.6
20260505215519 59 300 10.0 18.0 0.00 0.00 0.00 54 1015.6
20260505215019 59 306 9.0 17.0 0.00 0.00 0.00 56 1015.6
20260505214604 59 311 10.0 20.0 0.00 0.00 0.00 56 1015.7
20260505214021 59 350 11.0 20.0 0.00 0.00 0.00 57 1015.7
20260505213524 59 300 10.0 18.0 0.00 0.00 0.00 57 1015.7
20260505213054 59 317 10.0 17.0 0.00 0.00 0.00 57 1015.6
20260505212521 60 304 8.0 17.0 0.00 0.00 0.00 57 1015.6
20260505212020 60 294 7.0 13.0 0.00 0.00 0.00 57 1015.7
20260505211600 60 350 6.0 18.0 0.00 0.00 0.00 58 1015.6
20260505211019 60 242 8.0 18.0 0.00 0.00 0.00 58 1015.6
20260505210519 60 295 8.0 14.0 0.00 0.00 0.00 58 1015.5
20260505210059 59 292 5.0 16.0 0.00 0.00 0.00 58 1015.6
20260505205521 59 309 11.0 16.0 0.00 0.00 0.00 58 1015.4
20260505205017 60 323 8.0 17.0 0.00 0.00 0.00 58 1015.5
20260505204550 59 295 8.0 17.0 0.00 0.00 0.00 59 1015.3
20260505204017 60 300 11.0 16.0 0.00 0.00 0.00 59 1015.2
20260505203517 59 285 9.0 16.0 0.00 0.00 0.00 59 1015.2
20260505203049 59 298 9.0 13.0 0.00 0.00 0.00 59 1015.2
20260505202521 59 298 8.0 13.0 0.00 0.00 0.00 59 1015.2
20260505202019 59 306 7.0 12.0 0.00 0.00 0.00 60 1015.0
20260505201548 59 308 8.0 12.0 0.00 0.00 0.00 61 1015.1
20260505201020 59 284 8.0 12.0 0.00 0.00 0.00 60 1015.0
20260505200703 59 296 9.0 11.0 0.00 0.00 0.00 60 1015.1
20260505200044 59 311 4.0 12.0 0.00 0.00 0.00 60 1015.0
20260505195515 59 300 7.0 13.0 0.00 0.00 0.00 61 1015.0
20260505195016 59 331 7.0 13.0 0.00 0.00 0.00 61 1014.9
20260505194541 59 313 8.0 12.0 0.00 0.00 0.00 61 1014.9
20260505194016 59 298 7.0 11.0 0.00 0.00 0.00 61 1014.9
20260505193513 58 298 8.0 14.0 0.00 0.00 0.00 63 1014.9
20260505193046 58 311 8.0 14.0 0.00 0.00 0.00 63 1014.9
20260505192517 58 294 8.0 14.0 0.00 0.00 0.00 65 1014.8
20260505192014 58 302 7.0 15.0 0.00 0.00 0.00 65 1014.9
20260505191551 57 309 10.0 15.0 0.00 0.00 0.00 65 1014.8
20260505191018 58 284 11.0 16.0 0.00 0.00 0.00 64 1014.7
20260505190518 58 307 10.0 16.0 0.00 0.00 0.00 66 1014.9
20260505190048 58 287 8.0 14.0 0.00 0.00 0.00 66 1014.7
20260505185518 57 313 8.0 14.0 0.00 0.00 0.00 66 1014.7
20260505185017 57 277 11.0 14.0 0.00 0.00 0.00 65 1014.7
20260505184543 57 292 9.0 13.0 0.00 0.00 0.00 66 1014.6
20260505184015 57 315 8.0 13.0 0.00 0.00 0.00 66 1014.6
20260505183513 57 323 9.0 13.0 0.00 0.00 0.00 66 1014.6
20260505183049 57 276 7.0 11.0 0.00 0.00 0.00 65 1014.5
20260505182512 57 300 6.0 11.0 0.00 0.00 0.00 66 1014.5
20260505182016 57 321 7.0 11.0 0.00 0.00 0.00 66 1014.4
20260505181548 57 304 8.0 12.0 0.00 0.00 0.00 66 1014.3
20260505181017 57 331 8.0 12.0 0.00 0.00 0.00 66 1014.4
20260505180516 57 296 6.0 9.0 0.00 0.00 0.00 67 1014.5
20260505180056 57 306 6.0 9.0 0.00 0.00 0.00 67 1014.4
20260505175517 56 286 6.0 9.0 0.00 0.00 0.00 68 1014.4
20260505175019 56 304 5.0 10.0 0.00 0.00 0.00 70 1014.3
20260505174607 55 310 7.0 11.0 0.00 0.00 0.00 70 1014.2
20260505174016 55 309 7.0 11.0 0.00 0.00 0.00 70 1014.2
20260505173514 55 315 8.0 11.0 0.00 0.00 0.00 71 1014.2
20260505173047 55 292 8.0 11.0 0.00 0.00 0.00 71 1014.2
20260505172516 55 295 8.0 10.0 0.00 0.00 0.00 70 1014.1
20260505172015 55 302 7.0 9.0 0.00 0.00 0.00 71 1014.1
20260505171549 55 300 6.0 8.0 0.00 0.00 0.00 70 1014.0
20260505171018 56 291 5.0 8.0 0.00 0.00 0.00 71 1014.0
20260505170517 56 302 5.0 8.0 0.00 0.00 0.00 69 1014.0
20260505170100 56 295 5.0 8.0 0.00 0.00 0.00 68 1014.0
20260505165518 56 302 4.0 6.0 0.00 0.00 0.00 69 1014.1
20260505165016 56 302 5.0 7.0 0.00 0.00 0.00 70 1014.0
20260505164552 56 300 4.0 9.0 0.00 0.00 0.00 69 1014.1
20260505164016 56 287 5.0 9.0 0.00 0.00 0.00 69 1014.0
20260505163517 56 297 6.0 8.0 0.00 0.00 0.00 68 1014.0
20260505163050 56 309 3.0 8.0 0.00 0.00 0.00 67 1013.9
20260505162515 55 309 6.0 8.0 0.00 0.00 0.00 66 1013.8
20260505162017 55 298 5.0 8.0 0.00 0.00 0.00 67 1013.8
20260505161604 56 298 5.0 8.0 0.00 0.00 0.00 65 1013.6
20260505161020 57 302 5.0 6.0 0.00 0.00 0.00 60 1013.6
20260505160517 57 312 4.0 6.0 0.00 0.00 0.00 59 1013.7
20260505160113 57 313 4.0 6.0 0.00 0.00 0.00 59 1013.5
20260505153107 57 315 4.0 8.0 0.00 0.00 0.00 61 1013.4
20260505152520 57 321 4.0 8.0 0.00 0.00 0.00 61 1013.5
20260505152015 57 313 4.0 8.0 0.00 0.00 0.00 61 1013.4
20260505151554 56 311 4.0 9.0 0.00 0.00 0.00 63 1013.4
20260505151020 57 292 5.0 11.0 0.00 0.00 0.00 64 1013.4
20260505150519 56 336 6.0 11.0 0.00 0.00 0.00 62 1013.3
20260505140522 52 134 4.0 7.0 0.00 0.00 0.00 73 1012.7
20260505140109 51 146 5.0 7.0 0.00 0.00 0.00 74 1012.7
20260505130104 49 96 7.0 8.0 0.00 0.00 0.00 80 1012.2
20260505125011 49 111 6.0 7.0 0.00 0.00 0.00 81 1012.2
20260505124526 49 111 3.0 7.0 0.00 0.00 0.00 81 1012.2
20260505124011 49 111 4.0 7.0 0.00 0.00 0.00 81 1012.2
20260505123508 50 123 6.0 7.0 0.00 0.00 0.00 77 1012.1
20260505123041 49 110 6.0 8.0 0.00 0.00 0.00 80 1012.2
20260505122509 49 103 7.0 8.0 0.00 0.00 0.00 82 1012.2
20260505122013 50 132 6.0 8.0 0.00 0.00 0.00 83 1012.2
20260505121528 50 132 5.0 7.0 0.00 0.00 0.00 81 1012.2
20260505121010 50 132 4.0 7.0 0.00 0.00 0.00 79 1012.2
20260505120509 49 132 4.0 8.0 0.00 0.00 0.00 80 1012.3
20260505120029 49 132 6.0 8.0 0.00 0.00 0.00 81 1012.2
20260505115510 49 132 6.0 7.0 0.00 0.00 0.00 82 1012.3
20260505115010 49 132 4.0 5.0 0.00 0.00 0.00 82 1012.4
20260505114526 49 132 4.0 5.0 0.00 0.00 0.00 81 1012.4
20260505114008 50 132 4.0 5.0 0.00 0.00 0.00 81 1012.3
20260505113510 50 132 4.0 5.0 0.00 0.00 0.00 81 1012.3
20260505113034 50 132 4.0 5.0 0.00 0.00 0.00 79 1012.2
20260505112509 50 132 4.0 5.0 0.00 0.00 0.00 79 1012.2
20260505112015 51 132 4.0 5.0 0.00 0.00 0.00 79 1012.1
20260505111548 51 132 4.0 5.0 0.00 0.00 0.00 77 1012.1
20260505111013 51 132 3.0 7.0 0.00 0.00 0.00 73 1012.1
20260505110513 51 132 4.0 7.0 0.00 0.00 0.00 75 1012.2
20260505092510 54 144 3.0 7.0 0.00 0.00 0.00 70 1012.0
20260505091533 54 144 5.0 8.0 0.00 0.00 0.00 66 1012.0
20260505091011 54 101 6.0 8.0 0.00 0.00 0.00 76 1012.0
20260505090511 55 119 6.0 7.0 0.00 0.00 0.00 74 1012.0
20260505090033 54 96 5.0 8.0 0.00 0.00 0.00 66 1011.9
20260505085510 54 103 6.0 8.0 0.00 0.00 0.00 74 1012.0
20260505085015 54 128 5.0 8.0 0.00 0.00 0.00 71 1012.0
20260505084530 53 136 6.0 8.0 0.00 0.00 0.00 71 1011.9
20260505084011 54 117 6.0 8.0 0.00 0.00 0.00 76 1012.0
20260505083508 54 103 7.0 8.0 0.00 0.00 0.00 75 1012.0
20260505083035 54 123 5.0 7.0 0.00 0.00 0.00 74 1012.0
20260505082508 54 123 5.0 7.0 0.00 0.00 0.00 73 1012.0
20260505082012 54 123 5.0 7.0 0.00 0.00 0.00 69 1012.1
20260505081533 54 112 6.0 7.0 0.00 0.00 0.00 74 1012.1
20260505081016 54 129 6.0 7.0 0.00 0.00 0.00 72 1012.1
20260505080513 55 105 5.0 8.0 0.00 0.00 0.00 73 1012.1
20260505080035 55 138 7.0 8.0 0.00 0.00 0.00 70 1011.9
20260505075510 56 108 6.0 9.0 0.00 0.00 0.00 67 1012.0
20260505075016 55 91 7.0 8.0 0.00 0.00 0.00 66 1012.0
20260505074526 56 122 6.0 8.0 0.00 0.00 0.00 67 1012.1
20260505074008 56 118 7.0 9.0 0.00 0.00 0.00 67 1012.1
20260505073508 57 145 7.0 9.0 0.00 0.00 0.00 65 1012.2
20260505073030 57 99 8.0 10.0 0.00 0.00 0.00 64 1012.2
20260505072510 57 142 8.0 11.0 0.00 0.00 0.00 60 1012.2
20260505072011 57 150 8.0 11.0 0.00 0.00 0.00 64 1012.2
20260505071532 57 128 7.0 9.0 0.00 0.00 0.00 65 1012.1
20260505071016 58 138 7.0 10.0 0.00 0.00 0.00 59 1012.1
20260505070510 58 129 8.0 10.0 0.00 0.00 0.00 62 1012.0
20260505070032 59 120 8.0 10.0 0.00 0.00 0.00 61 1012.1
20260505065510 59 144 8.0 12.0 0.00 0.00 0.00 58 1012.2
20260505065012 58 132 10.0 12.0 0.00 0.00 0.00 63 1012.0
20260505064542 59 133 10.0 12.0 0.00 0.00 0.00 61 1012.0
20260505064011 59 117 10.0 12.0 0.00 0.00 0.00 62 1011.9
20260505063509 59 121 10.0 11.0 0.00 0.00 0.00 62 1011.8
20260505063030 59 135 9.0 12.0 0.00 0.00 0.00 60 1012.0
20260505062509 58 135 10.0 12.0 0.00 0.00 0.00 63 1011.9
20260505062012 58 140 10.0 12.0 0.00 0.00 0.00 63 1012.0
20260505061536 58 128 10.0 12.0 0.00 0.00 0.00 67 1011.9
20260505061010 58 99 10.0 12.0 0.00 0.00 0.00 66 1012.0
20260505060510 57 155 9.0 12.0 0.00 0.00 0.00 67 1012.0
20260505060028 56 157 8.0 11.0 0.00 0.00 0.00 69 1012.1
20260505055512 56 132 4.0 7.0 0.00 0.00 0.00 72 1012.1
20260505055012 56 84 4.0 7.0 0.00 0.00 0.00 70 1012.2
20260505054528 56 90 6.0 7.0 0.00 0.00 0.00 72 1012.1
20260505054012 55 133 3.0 7.0 0.00 0.00 0.00 69 1012.1
20260505053515 55 123 5.0 7.0 0.00 0.00 0.00 71 1012.2
20260505053029 55 130 5.0 7.0 0.00 0.00 0.00 75 1012.1
20260505052511 55 115 3.0 4.0 0.00 0.00 0.00 73 1012.2
20260505052010 55 115 3.0 6.0 0.00 0.00 0.00 73 1012.1
20260505051528 55 115 4.0 6.0 0.00 0.00 0.00 74 1012.1
20260505051009 55 115 5.0 6.0 0.00 0.00 0.00 74 1012.2
20260505050513 56 115 4.0 6.0 0.00 0.00 0.00 70 1012.2
20260505041532 57 107 3.0 7.0 0.00 0.00 0.00 69 1012.4
20260505041012 57 107 4.0 7.0 0.00 0.00 0.00 68 1012.4
20260505040512 59 96 4.0 6.0 0.00 0.00 0.00 67 1012.2
20260505040031 60 96 3.0 4.0 0.00 0.00 0.00 62 1012.2
20260505035510 61 96 3.0 4.0 0.00 0.00 0.00 61 1012.2
20260505035009 61 96 2.0 4.0 0.00 0.00 0.00 59 1012.2
20260505034533 61 96 3.0 5.0 0.00 0.00 0.00 58 1012.3
20260505034012 63 138 2.0 5.0 0.00 0.00 0.00 59 1012.4
20260505033515 62 103 1.0 4.0 0.00 0.00 0.00 55 1012.4
20260505033031 62 103 3.0 4.0 0.00 0.00 0.00 56 1012.4
20260505032511 62 103 3.0 4.0 0.00 0.00 0.00 59 1012.4
20260505032014 64 103 0.0 2.0 0.00 0.00 0.00 55 1012.5
20260505031530 63 103 1.0 3.0 0.00 0.00 0.00 54 1012.6
20260505031011 63 103 1.0 4.0 0.00 0.00 0.00 55 1012.4
20260505030509 65 103 2.0 4.0 0.00 0.00 0.00 52 1012.4
20260505030028 66 103 3.0 4.0 0.00 0.00 0.00 53 1012.5
20260505025511 66 299 2.0 4.0 0.00 0.00 0.00 49 1012.5
20260505025010 64 42 0.0 2.0 0.00 0.00 0.00 52 1012.5
20260505024539 64 42 1.0 4.0 0.00 0.00 0.00 52 1012.6
20260505024009 64 42 2.0 4.0 0.00 0.00 0.00 52 1012.6
20260505023511 64 42 1.0 3.0 0.00 0.00 0.00 53 1012.6
20260505023027 65 42 2.0 3.0 0.00 0.00 0.00 53 1012.8
20260505022517 67 104 1.0 4.0 0.00 0.00 0.00 50 1012.8
20260505022011 69 104 1.0 7.0 0.00 0.00 0.00 47 1012.8
20260505021537 69 305 4.0 7.0 0.00 0.00 0.00 44 1012.9
20260505021010 68 290 3.0 7.0 0.00 0.00 0.00 44 1012.9
20260505020511 68 304 4.0 8.0 0.00 0.00 0.00 45 1013.0
20260505020028 67 308 4.0 9.0 0.00 0.00 0.00 46 1013.1
20260505015511 67 296 6.0 9.0 0.00 0.00 0.00 46 1013.0
20260505015012 68 302 6.0 14.0 0.00 0.00 0.00 47 1013.1
20260505014533 68 292 8.0 14.0 0.00 0.00 0.00 46 1013.3